Weather History for CYYC - May, 2013

Change the Weather History Date:

Saturday, May 11, 2013

  Actual Average Record
Temperature  
Mean Temperature 61 °F -  
Max Temperature 81 °F 65 °F 81 °F (2013)
Min Temperature 41 °F 40 °F 21 °F (1999)
Degree Days  
Heating Degree Days 4    
Growing Degree Days 11 (Base 50)    
Moisture  
Dew Point 30 °F    
Average Humidity 33    
Maximum Humidity 61    
Minimum Humidity 7    
Precipitation  
Precipitation 0.00 in 0.08 in - ()
Sea Level Pressure  
Sea Level Pressure 30.14 in    
Wind  
Wind Speed 10 mph ()    
Max Wind Speed 18 mph    
Max Gust Speed 25 mph    
Visibility 15.5 miles    
Events      
Averages and records for this station are not official NWS values.
T = Trace of Precipitation, MM = Missing Value Source: Averaged Metar Reports

Daily Weather History Graph

Daily Weather History Graph

Search for Another Location

Airport or City:

Trip Planner

Search our weather history database for the weather conditions in past years. The results will help you decide how hot, cold, wet, or windy it might be!

Date:

Astronomy

May. 11, 2013 Rise Set
Actual Time 5:51 AM MDT 9:14 PM MDT
Civil Twilight 5:11 AM MDT 9:54 PM MDT
Nautical Twilight 4:17 AM MDT 10:48 PM MDT
Astronomical Twilight 3:05 AM MDT 12:03 AM MDT
Moon 6:58 AM MDT (5/11) 11:02 PM MDT (5/11)
Length of Visible Light 16h 43m
Length of Day
15h 23m
Waxing Crescent, 3% of the Moon is Illuminated
May 11
Waxing Crescent
May 17
First Quarter
May 24
Full
May 31
Last Quarter
Jun 8
New

Hourly Weather History & Observations

Time (MDT) Temp. Windchill Dew Point Humidity Pressure Visibility Wind Dir Wind Speed Gust Speed Precip Events Conditions
12:00 AM 47 °F - 29 °F 36% 30.41 in 15 mi South 11.5 mph - -  
12:00 AM 46.4 °F 41.1 °F 28.4 °F 50% 30.41 in 15.0 mi South 11.5 mph - N/A   Clear
1:00 AM 46.4 °F 40.4 °F 28.4 °F 50% 30.39 in 15.0 mi South 13.8 mph - N/A   Clear
2:00 AM 46.4 °F 39.8 °F 28.4 °F 50% 30.37 in 15.0 mi South 16.1 mph 23.0 mph N/A   Clear
3:00 AM 44.6 °F 38.4 °F 28.4 °F 53% 30.34 in 15.0 mi SSE 12.7 mph 19.6 mph N/A   Partly Cloudy
4:00 AM 41.0 °F 34.3 °F 28.4 °F 61% 30.32 in 15.0 mi SSE 11.5 mph - N/A   Clear
5:00 AM 42.8 °F 35.1 °F 26.6 °F 53% 30.29 in 15.0 mi South 16.1 mph - N/A   Partly Cloudy
6:00 AM 42 °F - 27 °F 43% 30.27 in 28 mi South 11.5 mph - -   Partly Cloudy
6:00 AM 42.8 °F 36.6 °F 26.6 °F 53% 30.27 in 30.0 mi South 11.5 mph 17.3 mph N/A   Scattered Clouds
7:00 AM 42.8 °F 36.6 °F 28.4 °F 57% 30.24 in 40.0 mi South 11.5 mph - N/A   Mostly Cloudy
8:00 AM 46.4 °F 40.7 °F 28.4 °F 50% 30.20 in 40.0 mi South 12.7 mph - N/A   Overcast
9:00 AM 50.0 °F - 30.2 °F 47% 30.18 in 40.0 mi South 8.1 mph - N/A   Mostly Cloudy
10:00 AM 51.8 °F - 32.0 °F 47% 30.17 in 40.0 mi SSE 4.6 mph - N/A   Overcast
11:00 AM 59.0 °F - 33.8 °F 39% 30.13 in 40.0 mi South 9.2 mph - N/A   Mostly Cloudy
12:00 PM 66 °F - 35 °F 21% 30.11 in 37 mi South 8.1 mph - -   Scattered Clouds
12:00 PM 66.2 °F - 35.6 °F 32% 30.11 in 40.0 mi SSE 9.2 mph - N/A   Mostly Cloudy
1:00 PM 69.8 °F - 37.4 °F 31% 30.07 in 40.0 mi SE 9.2 mph - N/A   Mostly Cloudy
2:00 PM 75.2 °F - 35.6 °F 24% 30.04 in 40.0 mi South 5.8 mph - N/A   Mostly Cloudy
3:00 PM 77.0 °F - 33.8 °F 21% 30.01 in 40.0 mi South 6.9 mph - N/A   Scattered Clouds
4:00 PM 77.0 °F - 35.6 °F 22% 30.01 in 40.0 mi SSW 8.1 mph - N/A   Mostly Cloudy
5:00 PM 80.6 °F - 26.6 °F 14% 29.99 in 40.0 mi SW 5.8 mph - N/A   Mostly Cloudy
5:39 PM 80.6 °F - 26.6 °F 14% 29.98 in 40.0 mi WNW 10.4 mph 19.6 mph N/A   Mostly Cloudy
6:00 PM 80 °F - 28 °F 7% 29.98 in 37 mi West 13.8 mph - -   Scattered Clouds
6:00 PM 80.6 °F - 28.4 °F 15% 29.98 in 40.0 mi WSW 16.1 mph - N/A   Mostly Cloudy
6:12 PM 78.8 °F - 28.4 °F 16% 29.98 in 40.0 mi WSW 15.0 mph - N/A   Overcast
7:00 PM 77.0 °F - 26.6 °F 16% 29.98 in 40.0 mi West 18.4 mph - N/A   Overcast
8:00 PM 75.2 °F - 24.8 °F 15% 29.97 in 40.0 mi West 17.3 mph 25.3 mph N/A   Mostly Cloudy
9:00 PM 71.6 °F - 26.6 °F 19% 29.97 in 20.0 mi West 12.7 mph - N/A   Mostly Cloudy
10:00 PM 69.8 °F - 26.6 °F 20% 29.98 in 15.0 mi West 13.8 mph 20.7 mph N/A   Mostly Cloudy
11:00 PM 68.0 °F - 26.6 °F 21% 29.96 in 15.0 mi West 13.8 mph 21.9 mph N/A   Scattered Clouds